Location: Nairn
(57.5833°N, 3.8667°W)
Time: 03:37:57
(UTC+00:00)

Explorer 7 - Pass Details

Date: 26 November 2020
Orbit: 484 x 678 km, 50.3° (Epoch: 17 January)

Event Time Altitude Azimuth Distance (km) Brightness Sun altitude
Exits shadow 06:05:24 20° 227° (SW) 1,324 8.4 -17.3°
Maximum altitude 06:07:26 30° 182° (S) 993 8.2 -17.0°
Drops below altitude 10° 06:10:56 10° 120° (ESE) 1,761 10.6 -16.6°
Sets 06:13:15 0° 109° (ESE) 2,620 12.1 -16.3°
